Regional Weather Roundup
Issued by NWS

Home | Current Version | Previous Version | Graphics & Text | Print | Product List | Glossary On
Versions: 1 2 3 4 5 6 7 8 9 10 11 12 13 14 15 16 17 18 19 20 21 22 23 24 25 26 27 28 29 30 31 32 33 34 35 36 37 38 39 40 41 42 43 44 45 46 47 48 49 50
000
ASUS43 KDTX 161701
RWRMI
MICHIGAN HOURLY REGIONAL WEATHER ROUNDUP
NATIONAL WEATHER SERVICE DETROIT/PONTIAC MI
100 PM EDT TUE SEP 16 2014

NOTE: "FAIR" INDICATES FEW OR NO CLOUDS BELOW 12,000 FEET WITH NO
SIGNIFICANT WEATHER AND/OR OBSTRUCTION TO VISIBILITY.

MIZ047>049-052>055-059>063-066>070-074>076-081>083-161800-
SOUTHEAST LOWER MICHIGAN

CITY           SKY/WX    TMP DP  RH WIND       PRES   REMARKS
ADRIAN         MOSUNNY   62  46  55 N7        30.16F
ALMA           PTSUNNY   60  53  77 SW12      30.14F
ANN ARBOR      SUNNY     63  42  46 VRB3      30.14F
BAD AXE        MOSUNNY   58  51  77 W3        30.12F
CARO           MOSUNNY   59  50  73 SW7       30.13F
DETROIT CITY   SUNNY     64  43  46 W6        30.14F
DETROIT        MOSUNNY   62  44  51 CALM      30.15F
FLINT          SUNNY     63  45  51 VRB6      30.15F
GROSSE ILE     MOSUNNY   63  48  59 CALM      30.13F
HILLSDALE      SUNNY     62  43  50 NW6       30.16F
HOWELL         SUNNY     61  44  53 W5        30.15F

CITY           SKY/WX    TMP DP  RH WIND       PRES   REMARKS
JACKSON        SUNNY     63  42  46 VRB6      30.15F
LAMBERTVILLE   MOSUNNY   63  46  55 N3        30.16F
LANSING        MOSUNNY   61  48  62 SW7       30.16F
LAPEER         FAIR      59  44  57 W6        30.15F
MASON          SUNNY     60  44  54 CALM      30.15F
MONROE         MOSUNNY   63  45  51 N5        30.13F
MT. CLEMENS    MOSUNNY   63  43  48 N3        30.12F
PONTIAC        MOSUNNY   61  43  51 W7        30.14F
PORT HOPE        N/A     61  45  55 N3        30.10F
PORT HURON     MOSUNNY   61  46  59 W5        30.13F
TRI CITIES     PTSUNNY   63  48  58 W12G26    30.14F
TROY           MOSUNNY   62  43  49 CALM      30.15F
SAGINAW HB     SUNNY     57  52  82 SW8       30.13F
$$
MIZ043>046-050>051-056>058-064>065-071>073-077>080-161800-
SOUTHWEST LOWER MICHIGAN

CITY           SKY/WX    TMP DP  RH WIND       PRES   REMARKS
BATTLE CREEK   PTSUNNY   61  47  59 W7        30.17F
BENTON HARBOR  MOSUNNY   61  48  62 W8        30.17F
BIG RAPIDS     PTSUNNY   59  51  75 W10       30.13F
COLDWATER      SUNNY     64  43  47 N3        30.16F
FREMONT        FAIR      60  41  49 W8        30.15F
HOLLAND        SUNNY     64  46  52 NW9       30.17F
GRAND RAPIDS   PTSUNNY   61  46  57 W10       30.16F
IONIA          FAIR      63  50  61 W10       30.14F
KALAMAZOO      PTSUNNY   62  44  51 NW7       30.17F
LUDINGTON      SUNNY     57  45  64 W8        30.15F
MARSHALL       MOSUNNY   62  43  49 W5        30.16S
MOUNT PLEASANT PTSUNNY   61  49  65 W9        30.13F
MUSKEGON       MOSUNNY   62  42  47 NW9       30.17F
SOUTH HAVEN    SUNNY     63  50  62 W3        30.17F
$$
MIZ016>042-161800-
NORTHERN LOWER MICHIGAN

CITY           SKY/WX    TMP DP  RH WIND       PRES   REMARKS
ALPENA         MOSUNNY   60  42  51 W7G17     30.08F
BEAVER ISLAND  SUNNY     60  47  61 SW12G21   30.08F
BELLAIRE       MOSUNNY   60  39  45 W7        30.11F
CADILLAC       MOSUNNY   57  44  60 W8        30.12F
CHARLEVOIX     SUNNY     60  44  55 W15       30.12F
FRANKFORT      SUNNY     60  45  57 SW9       30.13F
GAYLORD        MOSUNNY   57  37  47 W13G18    30.10S
GRAYLING       MOSUNNY   59  44  56 W9G17     30.11F
HARBOR SPRINGS SUNNY     61  43  51 W7        30.09F
HOUGHTON LAKE  MOSUNNY   55  49  80 SW8       30.12F
MANISTEE       SUNNY     57  41  54 W12       30.15S
OSCODA         PTSUNNY   60  46  58 W10       30.10S
PELLSTON       MOSUNNY   61  42  49 W9        30.08F
TRAVERSE CITY  PTSUNNY   61  38  42 W14       30.11F
$$
MIZ007>008-015-161800-
EASTERN UPPER MICHIGAN

CITY           SKY/WX    TMP DP  RH WIND       PRES   REMARKS
KINROSS        MOSUNNY   61  43  51 W10G20    30.04F
MACKINAC ISLAN SUNNY     59  44  56 W9G20     30.07F
NEWBERRY       SUNNY     60  39  45 SW16G24   30.03F
S. S. MARIE    SUNNY     62  40  44 W8        30.02
$$
MIZ004>006-011>014-085-161800-
CENTRAL UPPER MICHIGAN

CITY           SKY/WX    TMP DP  RH WIND       PRES   REMARKS
MANISTIQUE     SUNNY     61  47  59 S10       30.06F
ESCANABA       SUNNY     63  39  42 W8        30.06F
MENOMINEE      SUNNY     61  39  44 W8        30.10S
SAWYER-GWINN   SUNNY     61  41  48 S21       30.03F
$$
MIZ001>003-009>011-084-161800-
WESTERN UPPER MICHIGAN

CITY           SKY/WX    TMP DP  RH WIND       PRES   REMARKS
IRON MOUNTAIN  SUNNY     62  38  40 W13G22    30.05F
HOUGHTON       MOSUNNY   57  40  52 W21G29    29.98F
COPPER HARBOR    N/A     62  42  47 VRB7      29.95F
IRONWOOD       SUNNY     61  41  48 W20G25    30.03S
$$

ABBREVIATIONS USED IN REMARKS
   TC - TEMPERATURE IN CELSIUS
  WCI - WIND CHILL INDEX
   HX - HEAT INDEX
  VSB - VISIBILITY




USA.gov is the U.S. government's official web portal to all federal, state and local government web resources and services.